Location: Gleizolles
(44.4833°N, 6.7667°E)
Time: 21:41:22
(UTC+00:00)

Tiros 1 despin weight - Pass Details

Date: 03 July 2024
Orbit: 576 x 620 km, 48.2° (Epoch: 19 July)

Event Time Altitude Azimuth Distance (km) Brightness Sun altitude
Rises 13:08:41 0° 291° (WNW) 2,894 ? 61.4°
Reaches altitude 10° 13:11:04 10° 285° (WNW) 1,987 ? 61.1°
Maximum altitude 13:15:25 45° 213° (SSW) 851 ? 60.5°
Drops below altitude 10° 13:19:45 10° 141° (SE) 1,975 ? 59.9°
Sets 13:22:07 0° 135° (SE) 2,874 ? 59.6°
